Los Alamitos, CA

1:10 PM PST on February 23, 2018 (GMT -0800)
Los Alamitos Army Air Field

Weather History for KSLI - August, 2013

Change the Weather History Date:

Wednesday, August 21, 2013

  Actual Average Record
Temperature  
Mean Temperature 73 °F -  
Max Temperature 87 °F 80 °F 93 °F (1998)
Min Temperature 60 °F 66 °F 60 °F (2013)
Cooling Degree Days 8    
Growing Degree Days 23 (Base 50)    
Moisture  
Dew Point 57 °F    
Average Humidity 65    
Maximum Humidity 100    
Minimum Humidity 30    
Precipitation  
Precipitation 0.00 in - - ()
Sea Level Pressure  
Sea Level Pressure 29.90 in    
Wind  
Wind Speed 4 mph (West)    
Max Wind Speed 12 mph    
Max Gust Speed -    
Visibility 10 miles    
Events      
Averages and records for this station are not official NWS values.
T = Trace of Precipitation, MM = Missing Value Source: NWS Daily Summary

Daily Weather History Graph

Daily Weather History Graph

Search for Another Location

Airport or City:

Trip Planner

Search our weather history database for the weather conditions in past years. The results will help you decide how hot, cold, wet, or windy it might be!

Date:

Astronomy

Aug. 21, 2013 Rise Set
Actual Time 6:18 AM PDT 7:31 PM PDT
Civil Twilight 5:52 AM PDT 7:57 PM PDT
Nautical Twilight 5:21 AM PDT 8:28 PM PDT
Astronomical Twilight 4:49 AM PDT 9:00 PM PDT
Moon 7:49 PM PDT (8/21) 6:59 AM PDT (8/21)
Length of Visible Light 14h 04m
Length of Day
13h 12m
Full, 99% of the Moon is Illuminated
Aug 21
Full
Aug 28
Last Quarter
Sep 5
New
Sep 12
First Quarter
Sep 19
Full

Hourly Weather History & Observations

Time (PDT) Temp. Heat Index Dew Point Humidity Pressure Visibility Wind Dir Wind Speed Gust Speed Precip Events Conditions
12:58 AM 64.2 °F - 62.4 °F 94% 29.92 in 10.0 mi NW 2.3 mph - N/A   Clear
1:58 AM 63.9 °F - 62.1 °F 94% 29.91 in 10.0 mi NNE 2.3 mph - N/A   Clear
2:58 AM 63.1 °F - 62.2 °F 97% 29.90 in 10.0 mi NW 2.3 mph - N/A   Clear
3:58 AM 62.1 °F - 61.9 °F 99% 29.89 in 10.0 mi SSW 2.3 mph - N/A   Clear
4:58 AM 61.7 °F - 61.0 °F 97% 29.90 in 10.0 mi NE 1.2 mph - N/A   Clear
5:58 AM 61.2 °F - 60.8 °F 99% 29.90 in 10.0 mi Calm Calm - N/A   Clear
6:58 AM 60.3 °F - 60.3 °F 100% 29.91 in 10.0 mi West 2.3 mph - N/A   Partly Cloudy
7:58 AM 66.9 °F - 63.7 °F 89% 29.92 in 10.0 mi West 2.3 mph - N/A   Partly Cloudy
8:58 AM 71.1 °F - 60.8 °F 70% 29.92 in 10.0 mi Variable 2.3 mph - N/A   Partly Cloudy
9:58 AM 75.7 °F - 55.2 °F 49% 29.92 in 10.0 mi Variable 4.6 mph - N/A   Clear
10:58 AM 78.6 °F - 59.0 °F 51% 29.92 in 10.0 mi SSW 5.8 mph - N/A   Partly Cloudy
11:58 AM 80.2 °F 80.7 °F 58.5 °F 47% 29.91 in 10.0 mi SSE 8.1 mph - N/A   Clear
12:58 PM 81.9 °F 81.9 °F 58.3 °F 45% 29.89 in 10.0 mi SSW 8.1 mph - N/A   Clear
1:58 PM 86.0 °F 84.5 °F 55.6 °F 35% 29.88 in 10.0 mi West 10.4 mph - N/A   Clear
2:58 PM 84.2 °F - 50.2 °F 31% 29.87 in 10.0 mi West 10.4 mph - N/A   Clear
3:58 PM 83.7 °F - 50.9 °F 32% 29.86 in 10.0 mi NW 9.2 mph - N/A   Clear
4:58 PM 82.8 °F - 48.4 °F 30% 29.85 in 10.0 mi West 11.5 mph - N/A   Partly Cloudy
5:58 PM 80.2 °F - 49.1 °F 34% 29.84 in 10.0 mi WNW 8.1 mph - N/A   Partly Cloudy
6:58 PM 77.0 °F - 48.0 °F 36% 29.85 in 10.0 mi West 9.2 mph - N/A   Partly Cloudy
7:58 PM 72.1 °F - 50.9 °F 47% 29.88 in 10.0 mi NW 5.8 mph - N/A   Partly Cloudy
8:58 PM 69.8 °F - 55.0 °F 59% 29.90 in 10.0 mi NNW 5.8 mph - N/A   Partly Cloudy
9:58 PM 67.8 °F - 57.4 °F 69% 29.92 in 10.0 mi NNW 4.6 mph - N/A   Partly Cloudy
10:58 PM 66.2 °F - 57.7 °F 74% 29.92 in 10.0 mi West 3.5 mph - N/A   Clear
11:58 PM 65.5 °F - 61.2 °F 86% 29.94 in 10.0 mi SSE 4.6 mph - N/A   Clear